Regional Weather Roundup
Issued by NWS Kansas City/Pleasant Hill, MO

Home | Current Version | Previous Version | Text Only | Print | Product List | Glossary On
Versions: 1 2 3 4 5 6 7 8 9 10 11 12 13 14 15 16 17 18 19 20 21 22 23 24 25 26 27 28 29 30 31 32 33 34 35 36 37 38 39 40 41 42 43 44 45 46 47 48 49 50
000
ASUS43 KEAX 291311
RWREAX

WEATHER ROUNDUP FOR EASTERN KANSAS AND NORTHWEST MISSOURI
NATIONAL WEATHER SERVICE KANSAS CITY/PLEASANT HILL MO
700 AM CST MON DEC 29 2014

KSZ040-057-103>105-MOZ028-029-037-043-291400-
...KANSAS CITY METROPOLITAN AREA...

CITY           SKY/WX    TMP DP  RH WIND       PRES   REMARKS
K.C. INTL      PTCLDY    24  20  84 NE5       30.24R WCI  18
K.C. DOWNTOWN  CLEAR     26  22  84 N3        30.26R
LEES SUMMIT    FAIR      24  20  84 NE5       30.24R WCI  18
OLATHE - IXD   CLEAR     24  19  81 NE6       30.24R WCI  17
OLATHE - OJC   CLEAR     24  20  84 N3        30.23R
LAWRENCE       CLEAR     16  13  88 NW6       30.26R WCI   7

$$

MOZ001>008-011>017-020>025-030>033-038>040-044>046-053-054-291400-
...NORTHERN AND CENTRAL MISSOURI...

CITY           SKY/WX    TMP DP  RH WIND       PRES   REMARKS
ST. JOSEPH     PTCLDY    22  19  89 CALM      30.27R
MOSBY          SUNNY     21  21 100 CALM      30.27R
WARRENSBURG    CLEAR     21  19  93 CALM      30.26R
WHITEMAN AFB   CLOUDY    25  19  80 NE2       30.21S
CLINTON        CLEAR     21  19  93 CALM      30.25R
SEDALIA        CLEAR     23  20  88 E5        30.26R WCI  17
WARSAW         NOT AVBL
MARSHALL       CLEAR     25  23  93 E6        30.27R WCI  18
CHILLICOTHE      N/A     22  19  89 NW3       30.29R
MOBERLY        CLEAR     23  18  80 CALM      30.27R
KIRKSVILLE     CLEAR     21  18  88 NE5       30.28R WCI  15

$$

MOZ041-047>049-056>058-063>065-088>090-097-291400-
...EASTERN AND SOUTHERN MISSOURI...

CITY           SKY/WX    TMP DP  RH WIND       PRES   REMARKS
ST. LOUIS INTL PTCLDY    22  17  81 E3        30.29R
SPIRIT OF STL  FOG       22  19  89 CALM      30.29R VSB 1/2
COLUMBIA       FAIR      24  22  91 E5        30.26R WCI  18
JEFFERSON CITY CLEAR     20  17  88 CALM      30.29R
MEXICO         CLEAR    N/A N/A N/A CALM      30.26R
HANNIBAL       CLEAR     23  21  93 NE3       30.28R
ROLLA          CLEAR     21  18  88 CALM      30.23R
LEBANON        CLEAR     21  19  93 E3        30.22S
OSAGE BEACH    CLEAR     16  10  79 CALM      30.25R
SPRINGFIELD    PTCLDY    21  17  84 CALM      30.20R
BRANSON        FOG       25  23  93 CALM      30.20R VSB 1/8
NEVADA         CLEAR     21  19  93 E6        30.25R WCI  14
JOPLIN         CLEAR     22  20  92 E5        30.22R WCI  16
WEST PLAINS    MOCLDY    22  20  92 NE3       30.21R

$$

IAZ060-094-KSZ022-034>040-054-083-096-NEZ052-066-093-291400-
...KANSAS...SOUTHEAST NEBRASKA AND IOWA...

CITY           SKY/WX    TMP DP  RH WIND       PRES   REMARKS
TOPEKA         CLEAR     21  19  92 CALM      30.26R
MANHATTAN      PTCLDY    21  18  88 CALM      30.23R
EMPORIA        CLEAR     19  17  92 N5        30.21R WCI  12
CHANUTE        CLEAR     22  20  92 E3        30.21R
WICHITA        PTCLDY    23  17  78 NE6       30.17R WCI  16
OMAHA          FLURRIES  23  19  85 N12       30.34R WCI  12
LINCOLN        CLOUDY    22  18  85 NE14      30.31R FOG     WCI   9
FALLS CITY     CLOUDY    28  24  85 N3        30.26R
LAMONI         PTCLDY    24  22  91 NE6       30.27R WCI  17
DES MOINES     CLOUDY    25  21  85 NE10      30.33R WCI  15

$$




USA.gov is the U.S. government's official web portal to all federal, state and local government web resources and services.